Location: Fauquembergues
(50.6005°N, 2.0987°E)
Time: 08:30:30
(UTC+00:00)

Cosmos 407 Rocket - Pass Details

Date: 14 July 2020
Orbit: 744 x 786 km, 74.0° (Epoch: 14 August)

Event Time Altitude Azimuth Distance (km) Brightness Sun altitude
Exits shadow 02:35:23 12° 232° (SW) 2,226 5.3 -9.8°
Maximum altitude 02:40:08 43° 303° (WNW) 1,091 4.3 -9.4°
Drops below altitude 10° 02:45:15 10° 15° (NNE) 2,357 7.2 -8.9°
Sets 02:47:46 0° 22° (NNE) 3,286 8.4 -8.6°
